Date String (YYYY-MM-DD hh:mm:ss) UTC,Instrument flags,Ambient pressure (hPa),Sample flow (lpm),Bypass flow (lpm),Sample temperature (°C),Ambient temperature (°C),ASC tube jacket temperature (°C),LED temperature (°C),Box temperature (°C),Sample RH (%),Span deviation,Mass concentration (μg/m³),Mass concentration (μg/m³),Mass concentration (μg/m³)
DateTimeUTC,F1_M11,P_M11,Q1_M11,Q2_M11,T1_M11,T2_M11,T3_M11,T4_M11,T5_M11,U1_M11,ZSPAN_M11,X0_M11,X2_M11,X1_M11
2022-05-01 13:00:00,,0824.8,5.01,0.00,24.9,23.6,00.0,33.9,26.6,13.6,0000.0,0011.47,0004.66,0003.74
2022-05-01 13:01:00,,0824.8,4.98,0.00,24.9,23.7,00.0,33.9,26.6,13.6,0000.0,0011.59,0004.69,0003.74
2022-05-01 13:02:00,,0824.8,5.01,0.00,24.8,23.7,00.0,33.9,26.6,13.7,0000.0,0011.34,0004.68,0003.73
2022-05-01 13:03:00,,0824.8,5.00,0.00,24.9,23.7,00.0,33.9,26.6,13.8,0000.0,0011.18,0004.66,0003.72
2022-05-01 13:04:00,,0824.8,4.99,0.00,24.9,23.7,00.0,33.9,26.6,13.7,0000.0,0011.55,0004.65,0003.71
2022-05-01 13:05:00,,0824.8,5.01,0.00,24.9,23.7,00.0,33.9,26.6,13.8,0000.0,0011.44,0004.62,0003.70
2022-05-01 13:06:00,,0824.8,5.00,0.00,24.9,23.7,00.0,33.9,26.6,13.8,0000.0,0010.98,0004.59,0003.70
2022-05-01 13:07:00,,0824.8,4.98,0.00,24.9,23.7,00.0,33.9,26.6,13.9,0000.0,0011.30,0004.59,0003.69
2022-05-01 13:08:00,,0824.8,5.01,0.00,24.9,23.7,00.0,33.9,26.6,13.9,0000.0,0011.55,0004.55,0003.69
2022-05-01 13:09:00,,0824.8,4.99,0.00,24.9,23.7,00.0,33.9,26.6,13.9,0000.0,0011.77,0004.54,0003.69
2022-05-01 13:10:00,,0824.7,5.01,0.00,24.9,23.7,00.0,33.9,26.6,13.8,0000.0,0011.89,0004.53,0003.67
2022-05-01 13:11:00,,0824.9,5.00,0.00,24.9,23.7,00.0,33.9,26.6,13.8,0000.0,0011.96,0004.48,0003.66
2022-05-01 13:12:00,,0824.7,5.00,0.00,24.9,23.8,00.0,33.9,26.6,13.8,0000.0,0012.13,0004.43,0003.64
2022-05-01 13:13:00,,0824.6,5.01,0.00,24.9,23.8,00.0,33.9,26.6,13.8,0000.0,0012.41,0004.44,0003.64
2022-05-01 13:14:00,,0824.7,4.99,0.00,24.9,23.8,00.0,33.9,26.6,13.9,0000.0,0012.38,0004.42,0003.65
2022-05-01 13:15:00,,0824.8,5.00,0.00,24.9,23.7,00.0,33.9,26.6,13.9,0000.0,0012.27,0004.41,0003.65
2022-05-01 13:16:00,,0824.7,5.02,0.00,24.9,23.8,00.0,33.9,26.6,14.0,0000.0,0012.92,0004.44,0003.65
2022-05-01 13:17:00,,0824.7,5.00,0.00,24.9,23.8,00.0,33.9,26.6,13.9,0000.0,0013.61,0004.46,0003.65
2022-05-01 13:18:00,,0824.7,4.99,0.00,24.9,23.8,00.0,33.9,26.6,13.9,0000.0,0013.27,0004.49,0003.66
2022-05-01 13:19:00,,0824.7,5.00,0.00,24.9,23.8,00.0,33.9,26.7,13.9,0000.0,0013.81,0004.49,0003.66
2022-05-01 13:20:00,,0824.6,5.02,0.00,24.9,23.8,00.0,33.9,26.6,14.0,0000.0,0014.32,0004.47,0003.67
2022-05-01 13:21:00,,0824.6,4.99,0.00,24.9,23.8,00.0,33.9,26.7,13.9,0000.0,0013.92,0004.48,0003.68
2022-05-01 13:22:00,,0824.6,4.99,0.00,24.9,23.8,00.0,33.9,26.7,13.9,0000.0,0013.24,0004.51,0003.69
2022-05-01 13:23:00,,0824.6,5.01,0.00,24.9,23.9,00.0,33.9,26.7,14.0,0000.0,0012.33,0004.52,0003.71
2022-05-01 13:24:00,,0824.6,5.01,0.00,24.9,23.9,00.0,33.9,26.7,14.0,0000.0,0012.19,0004.52,0003.72
2022-05-01 13:25:00,,0824.6,4.99,0.00,24.9,23.9,00.0,33.9,26.7,14.0,0000.0,0011.94,0004.51,0003.71
2022-05-01 13:26:00,,0824.6,4.99,0.00,25.0,23.9,00.0,33.9,26.8,13.9,0000.0,0011.77,0004.52,0003.70
2022-05-01 13:27:00,,0824.6,5.01,0.00,25.0,23.9,00.0,33.9,26.8,13.9,0000.0,0011.30,0004.48,0003.70
2022-05-01 13:28:00,,0824.7,4.99,0.00,25.0,23.9,00.0,33.9,26.8,14.0,0000.0,0011.00,0004.43,0003.69
2022-05-01 13:29:00,,0824.6,5.02,0.00,25.0,23.9,00.0,33.9,26.8,14.0,0000.0,0010.70,0004.38,0003.68
2022-05-01 13:30:00,,0824.6,4.99,0.00,25.0,24.0,00.0,33.9,26.8,14.0,0000.0,0010.34,0004.40,0003.67
2022-05-01 13:31:00,,0824.6,4.99,0.00,25.0,24.0,00.0,33.9,26.8,14.0,0000.0,0009.49,0004.41,0003.67
2022-05-01 13:32:00,,0824.6,5.02,0.00,25.0,24.0,00.0,33.9,26.8,14.1,0000.0,0009.27,0004.41,0003.66
2022-05-01 13:33:00,,0824.6,4.99,0.00,25.0,24.0,00.0,33.9,26.8,14.1,0000.0,0009.25,0004.39,0003.64
2022-05-01 13:34:00,,0824.6,4.99,0.00,25.0,24.0,00.0,33.9,26.9,14.2,0000.0,0009.49,0004.41,0003.64
2022-05-01 13:35:00,,0824.7,5.01,0.00,25.0,24.1,00.0,33.9,26.9,14.1,0000.0,0009.50,0004.41,0003.63
2022-05-01 13:36:00,,0824.6,5.00,0.00,25.0,24.1,00.0,33.9,26.9,14.2,0000.0,0009.64,0004.45,0003.64
2022-05-01 13:37:00,,0824.6,4.99,0.00,25.0,24.1,00.0,34.0,26.9,14.3,0000.0,0009.62,0004.44,0003.64
2022-05-01 13:38:00,,0824.6,5.00,0.00,25.1,24.1,00.0,34.0,26.9,14.1,0000.0,0009.55,0004.41,0003.63
2022-05-01 13:39:00,,0824.6,5.02,0.00,25.1,24.1,00.0,34.0,26.9,14.0,0000.0,0008.89,0004.43,0003.63
2022-05-01 13:40:00,,0824.7,4.99,0.00,25.1,24.1,00.0,34.0,26.9,14.2,0000.0,0009.57,0004.44,0003.63
2022-05-01 13:41:00,,0824.6,4.99,0.00,25.1,24.1,00.0,34.0,26.9,14.3,0000.0,0009.69,0004.44,0003.63
2022-05-01 13:42:00,,0824.6,5.01,0.00,25.1,24.1,00.0,34.0,27.0,14.2,0000.0,0009.66,0004.46,0003.63
2022-05-01 13:43:00,,0824.6,5.00,0.00,25.1,24.1,00.0,34.0,27.0,14.1,0000.0,0009.77,0004.47,0003.64
2022-05-01 13:44:00,,0824.6,4.99,0.00,25.1,24.2,00.0,34.0,27.0,14.2,0000.0,0009.70,0004.46,0003.64
2022-05-01 13:45:00,,0824.5,5.00,0.00,25.1,24.1,00.0,34.0,27.0,14.3,0000.0,0009.51,0004.45,0003.65
2022-05-01 13:46:00,,0824.6,5.01,0.00,25.1,24.2,00.0,34.0,27.0,14.1,0000.0,0009.33,0004.44,0003.65
2022-05-01 13:47:00,,0824.6,4.99,0.00,25.1,24.2,00.0,34.0,27.1,14.4,0000.0,0009.43,0004.42,0003.64
2022-05-01 13:48:00,,0824.6,4.99,0.00,25.1,24.3,00.0,34.1,27.0,14.5,0000.0,0009.42,0004.39,0003.64
2022-05-01 13:49:00,,0824.6,5.01,0.00,25.1,24.3,00.0,34.1,27.0,14.8,0000.0,0009.75,0004.43,0003.65
2022-05-01 13:50:00,,0824.6,4.99,0.00,25.1,24.3,00.0,34.1,27.0,14.8,0000.0,0010.24,0004.46,0003.65
2022-05-01 13:51:00,,0824.6,5.00,0.00,25.1,24.3,00.0,34.1,27.0,14.5,0000.0,0010.22,0004.49,0003.66
2022-05-01 13:52:00,,0824.5,5.02,0.00,25.1,24.3,00.0,34.1,27.0,14.2,0000.0,0009.62,0004.50,0003.66
2022-05-01 13:53:00,,0824.5,5.00,0.00,25.1,24.3,00.0,34.1,27.0,14.2,0000.0,0009.39,0004.47,0003.67
2022-05-01 13:54:00,,0824.4,5.01,0.00,25.1,24.3,00.0,34.1,27.0,14.1,0000.0,0009.30,0004.45,0003.68
2022-05-01 13:55:00,,0824.4,5.00,0.00,25.1,24.3,00.0,34.1,27.0,13.9,0000.0,0009.35,0004.46,0003.68
2022-05-01 13:56:00,,0824.4,4.99,0.00,25.1,24.3,00.0,34.0,26.9,13.8,0000.0,0009.31,0004.44,0003.68
2022-05-01 13:57:00,,0824.4,4.99,0.00,25.1,24.3,00.0,34.0,26.9,14.0,0000.0,0009.28,0004.38,0003.67
2022-05-01 13:58:00,,0824.4,5.00,0.00,25.1,24.3,00.0,34.0,26.9,14.3,0000.0,0009.05,0004.36,0003.68
2022-05-01 13:59:00,,0824.4,5.01,0.00,25.1,24.3,00.0,34.0,27.0,14.5,0000.0,0009.00,0004.39,0003.70
